"Pseudo-MPEC" for ZTF03gO

Created 2019 Jun 20 19:07:30 UT using Find_Orb

Click here for an explanation of pseudo-MPECs

 
 Astrometry: 
     ZTF03gO  C2019 06 09.29579118 46 43.27 +02 01 11.4    ~6AI7 20.52rUNEOCPI41
     ZTF03gO  C2019 06 09.33574018 46 42.71 +02 01 47.3    ~6AI7 20.98gUNEOCPI41
     ZTF03gO  C2019 06 10.36177018 46 30.46 +02 17 05.3    ~6AI7 20.47rUNEOCPI41
     ZTF03gO  C2019 06 10.36900018 46 30.34 +02 17 12.1    ~6AI7 20.41rUNEOCPI41
     ZTF03gO  C2019 06 10.37081018 46 30.31 +02 17 13.1    ~6AI7 20.35rUNEOCPI41
     ZTF03gO  C2019 06 10.37262018 46 30.28 +02 17 15.0    ~6AI7 20.40rUNEOCPI41
     ZTF03gO  C2019 06 10.37756918 46 30.19 +02 17 19.4    ~6AI7 20.57rUNEOCPI41
     ZTF03gO  C2019 06 10.37847018 46 30.20 +02 17 20.6    ~6AI7 20.66rUNEOCPI41
     ZTF03gO  C2019 06 10.38841018 46 30.01 +02 17 29.2    ~6AI7 20.49rUNEOCPI41

Station data:
(I41) Palomar Mountain--ZTF  (N33.357340 W116.859780)  US/California. 1.2-m
   f/2.44 Oschin Schmidt + CCD.

Orbital elements:  ZTF03gO
   Perihelion 2019 May 14.042197 +/- 62.8 TT =  1:00:45 (JD 2458617.542197)
Epoch 2019 Jun 10.0 TT = JDT 2458644.5   Earth MOID: 0.5705   Ma: 0.0633
M   6.52611022 +/- 15               (J2000 ecliptic)          AutoNEOCP
n   0.24208613 +/- 0.172            Peri.   38.70585 +/- 80
a   2.54970210 +/- 1.22             Node   213.33412 +/- 28
e   0.3868964 +/- 0.226             Incl.   12.07344 +/- 4.2
P   4.07                   H 19.7   G  0.15   U 11.6  SR
q 1.56323137 +/- 0.444    Q 3.53617284 +/- 26.1
From 9 observations 2019 June 9-10 (26.2 hr); mean residual 0".22
Residuals in arcseconds: 
190609 I41  .33-  .23+    190610 I41  .08-  .20+    190610 I41  .08-  .05-    
190609 I41  .35+  .23-    190610 I41  .05-  .39-    190610 I41  .31+  .36+    
190610 I41  .17-  .23-    190610 I41  .03-  .09-    190610 I41  .08+  .20+    

Ephemerides (geocentric):
Date (UTC) HH   RA              Dec         delta   r     elong  mag " sig PA
---- -- -- --  -------------   -----------  ------ ------ -----  --- ---- ---
2019 06 20 19  18 43 00.894   +04 23 42.81  .63352 1.5960 149.8 20.7  954  75
2019 06 20 20  18 42 59.807   +04 24 06.26  .63354 1.5960 149.8 20.7  961  74
2019 06 20 21  18 42 58.720   +04 24 29.65  .63357 1.5961 149.9 20.7  969  74
2019 06 20 22  18 42 57.630   +04 24 52.99  .63360 1.5962 149.9 20.7  977  74
2019 06 20 23  18 42 56.539   +04 25 16.26  .63363 1.5962 149.9 20.7  985  74
2019 06 21 00  18 42 55.447   +04 25 39.48  .63366 1.5963 149.9 20.7  993  74
2019 06 21 01  18 42 54.353   +04 26 02.64  .63369 1.5964 149.9 20.7 1001  74
2019 06 21 02  18 42 53.258   +04 26 25.75  .63372 1.5965 149.9 20.7 1008  74
2019 06 21 03  18 42 52.162   +04 26 48.79  .63375 1.5965 149.9 20.7 1016  74
2019 06 21 04  18 42 51.064   +04 27 11.78  .63378 1.5966 149.9 20.7 1024  74
2019 06 21 05  18 42 49.964   +04 27 34.71  .63381 1.5967 149.9 20.7 1032  74
2019 06 21 06  18 42 48.864   +04 27 57.58  .63384 1.5967 150.0 20.7 1040  74
2019 06 21 07  18 42 47.761   +04 28 20.39  .63387 1.5968 150.0 20.7 1049  74
2019 06 21 08  18 42 46.658   +04 28 43.15  .63390 1.5969 150.0 20.7 1057  74
2019 06 21 09  18 42 45.553   +04 29 05.85  .63393 1.5970 150.0 20.7 1065  74
2019 06 21 10  18 42 44.446   +04 29 28.49  .63396 1.5970 150.0 20.7 1073  74
2019 06 21 11  18 42 43.339   +04 29 51.07  .63399 1.5971 150.0 20.7 1081  74
2019 06 21 12  18 42 42.230   +04 30 13.59  .63403 1.5972 150.0 20.7 1090  74
2019 06 21 13  18 42 41.119   +04 30 36.05  .63406 1.5973 150.0 20.7 1098  74
2019 06 21 14  18 42 40.007   +04 30 58.46  .63409 1.5973 150.0 20.7 1106  74
2019 06 21 15  18 42 38.894   +04 31 20.81  .63412 1.5974 150.1 20.7 1115  74
2019 06 21 16  18 42 37.779   +04 31 43.10  .63416 1.5975 150.1 20.7 1123  74
2019 06 21 17  18 42 36.664   +04 32 05.33  .63419 1.5975 150.1 20.7 1132  73
2019 06 21 18  18 42 35.546   +04 32 27.50  .63422 1.5976 150.1 20.7 1140  73
2019 06 21 19  18 42 34.428   +04 32 49.62  .63426 1.5977 150.1 20.7 1149  73
2019 06 21 20  18 42 33.308   +04 33 11.67  .63429 1.5978 150.1 20.7 1157  73
2019 06 21 21  18 42 32.187   +04 33 33.67  .63433 1.5978 150.1 20.7 1166  73
2019 06 21 22  18 42 31.064   +04 33 55.61  .63436 1.5979 150.1 20.7 1174  73
2019 06 21 23  18 42 29.941   +04 34 17.49  .63440 1.5980 150.1 20.7 1183  73
2019 06 22 00  18 42 28.815   +04 34 39.32  .63443 1.5980 150.2 20.7 1192  73
2019 06 22 01  18 42 27.689   +04 35 01.08  .63447 1.5981 150.2 20.7 1201  73
2019 06 22 02  18 42 26.562   +04 35 22.79  .63450 1.5982 150.2 20.7 1209  73
2019 06 22 03  18 42 25.433   +04 35 44.43  .63454 1.5983 150.2 20.7 1218  73
2019 06 22 04  18 42 24.302   +04 36 06.02  .63457 1.5983 150.2 20.7 1227  73
2019 06 22 05  18 42 23.171   +04 36 27.55  .63461 1.5984 150.2 20.7 1236  73
2019 06 22 06  18 42 22.038   +04 36 49.02  .63465 1.5985 150.2 20.7 1245  73
2019 06 22 07  18 42 20.905   +04 37 10.43  .63468 1.5986 150.2 20.7 1254  73
2019 06 22 08  18 42 19.769   +04 37 31.79  .63472 1.5986 150.2 20.7 1263  73
2019 06 22 09  18 42 18.633   +04 37 53.08  .63476 1.5987 150.2 20.7 1272  73
2019 06 22 10  18 42 17.495   +04 38 14.32  .63480 1.5988 150.3 20.7 1281  73
2019 06 22 11  18 42 16.357   +04 38 35.50  .63483 1.5989 150.3 20.7 1290  73
2019 06 22 12  18 42 15.217   +04 38 56.62  .63487 1.5989 150.3 20.7 1299  73
2019 06 22 13  18 42 14.075   +04 39 17.68  .63491 1.5990 150.3 20.7 1309  73
2019 06 22 14  18 42 12.933   +04 39 38.68  .63495 1.5991 150.3 20.7 1318  72
2019 06 22 15  18 42 11.789   +04 39 59.62  .63499 1.5992 150.3 20.7 1327  72
2019 06 22 16  18 42 10.645   +04 40 20.50  .63503 1.5992 150.3 20.7 1336  72
2019 06 22 17  18 42 09.499   +04 40 41.33  .63507 1.5993 150.3 20.7 1346  72
2019 06 22 18  18 42 08.352   +04 41 02.09  .63511 1.5994 150.3 20.7 1355  72